Starlink 11636

operational
NORAD ID: 63194 Int'l Des: 2025-048 Owner: SPXS Country: US Constellation: starlink
LEOCIRCULAR

Starlink 11636について

説明を読み込み中...

リアルタイム位置

3D地球を読み込み中...

次回通過

高度履歴

Altitude vs Time

uPlot chart will show altitude changes over time

軌道要素

1 63194U 25048M 25352.26701783 .00349021 00000-0 25950-2 0 9995
2 63194 43.0004 90.8504 0001937 252.8455 107.2201 15.70986048 45711
Epoch: Dec 18, 2025 • Age: 11 hours

現在のステータス

高度 354.3 km
速度 7.70 km/s
衛星直下点 5.52°N, 92.77°W
打ち上げ日 Mar 13, 2025
運用期間 0.7 years
タイプ internet

技術仕様

分類 Payload
質量 960.00 kg
乾燥質量 910.00 kg
総質量 960.00 kg
長さ 0.30 m
直径 4.10 m
スパン 29.00 m
形状 Box + pan
製造者 SPXS
バスタイプ Starlink V2MD
フェーズステータス In Orbit
所有者/国 SPXS/US

大規模コンステレーション

Loading constellations...